Regional Weather Roundup
Issued by NWS Kansas City/Pleasant Hill, MO

Current Version | Previous Version | Text Only | Print | Product List | Glossary On
Versions: 1 2 3 4 5 6 7 8 9 10 11 12 13 14 15 16 17 18 19 20 21 22 23 24 25 26 27 28 29 30 31 32 33 34 35 36 37 38 39 40 41 42 43 44 45 46 47 48 49 50
000
ASUS43 KEAX 250110
RWREAX

WEATHER ROUNDUP FOR EASTERN KANSAS AND NORTHWEST MISSOURI
NATIONAL WEATHER SERVICE KANSAS CITY/PLEASANT HILL MO
800 PM CDT FRI MAR 24 2017

KSZ040-057-103>105-MOZ028-029-037-043-250200-
...KANSAS CITY METROPOLITAN AREA...

CITY           SKY/WX    TMP DP  RH WIND       PRES   REMARKS
K.C. INTL      CLOUDY    60  58  92 SE13      29.82F
K.C. DOWNTOWN  CLOUDY    62  58  86 SE5       29.82S
LEES SUMMIT    CLOUDY    59  57  93 SE13      29.84F
OLATHE - IXD   MOCLDY    59  57  93 E6        29.82R
OLATHE - OJC   MOCLDY    58  58 100 E9        29.81S
LAWRENCE       CLOUDY    62  58  86 E12       29.81R

$$

MOZ001>008-011>017-020>025-030>033-038>040-044>046-053-054-250200-
...NORTHERN AND CENTRAL MISSOURI...

CITY           SKY/WX    TMP DP  RH WIND       PRES   REMARKS
ST. JOSEPH     CLOUDY    58  58 100 N3        29.84F
MOSBY            N/A     59  59 100 SE6       29.84F
WARRENSBURG    CLOUDY    57  55  94 SE10      29.85F
WHITEMAN AFB   MOCLDY    58  58 100 E6        29.85F
CLINTON        CLOUDY    59  57  94 CALM      29.85F
SEDALIA        CLOUDY    60  58  92 SE9       29.89F
WARSAW         NOT AVBL
CHILLICOTHE      N/A     58  58 100 E7        29.87F
KIRKSVILLE     LGT RAIN  57  57 100 S7        29.95S FOG

$$

MOZ041-047>049-056>058-063>065-088>090-097-250200-
...EASTERN AND SOUTHERN MISSOURI...

CITY           SKY/WX    TMP DP  RH WIND       PRES   REMARKS
ST. LOUIS INTL CLOUDY    73  54  51 S13       29.97R
SPIRIT OF STL  CLOUDY    72  55  55 SE8       29.95R
COLUMBIA       CLOUDY    60  55  83 CALM      29.93F
JEFFERSON CITY CLOUDY    67  55  65 N3        29.91F
ROLLA          CLOUDY    68  53  58 SE8       29.90F
OSAGE BEACH    HVY RAIN N/A N/A N/A W12       29.92S
SPRINGFIELD    TSTM      58  57  97 W7        29.93R FOG
BRANSON        LGT RAIN  59  59 100 CALM      29.86F FOG
JOPLIN         CLOUDY    61  58  90 SE15G22   29.76F
WEST PLAINS    MOCLDY    69  55  60 SE8       29.91F

$$

IAZ060-094-KSZ022-034>040-054-083-096-NEZ052-066-093-250200-
...KANSAS...SOUTHEAST NEBRASKA AND IOWA...

CITY           SKY/WX    TMP DP  RH WIND       PRES   REMARKS
TOPEKA         PTCLDY    62  57  83 SE8       29.79R
MANHATTAN      RAIN      53  52  96 VRB5      29.86R FOG
EMPORIA        TSTM      49  48  97 N15       29.81R FOG
CHANUTE        PTCLDY    62  56  80 E9        29.77F
WICHITA        CLOUDY    58  50  75 E7        29.73F
OMAHA          LGT RAIN  43  38  82 N18       29.98R WCI  35
LINCOLN        CLOUDY    43  40  89 N21G29    29.98S WCI  34
FALLS CITY     LGT RAIN  51  50  96 NE13      29.86S
LAMONI         LGT RAIN  54  54 100 NE8       29.89F FOG
DES MOINES     CLOUDY    47  44  90 NE14      29.99R FOG

$$




USA.gov is the U.S. government's official web portal to all federal, state and local government web resources and services.